| time (UTC) | temp F | wind direction | speed knots | gust knots | rain 1hr in | rain 24hr in | rain mn in | humidity % | barometer mb |
| 20260502191546 | 49 | 250 | 0.9 | 2.6 | 0.00 | 0.35 | 0.35 | 77 | 1009.8 |
| 20260502190039 | 48 | 348 | 0.9 | 3.5 | 0.00 | 0.35 | 0.35 | 84 | 1009.7 |
| 20260502184545 | 49 | 348 | 0.9 | 3.5 | 0.00 | 0.35 | 0.35 | 83 | 1009.9 |
| 20260502183043 | 47 | 353 | 0.0 | 4.3 | 0.00 | 0.35 | 0.35 | 89 | 1010.2 |
| 20260502181542 | 47 | 74 | 0.0 | 3.5 | 0.00 | 0.35 | 0.35 | 87 | 1010.3 |
| 20260502163038 | 44 | 0 | 0.0 | 0.0 | 0.15 | 0.34 | 0.34 | 93 | 1010.4 |
| 20260502161534 | 44 | 0 | 0.0 | 0.0 | 0.15 | 0.34 | 0.34 | 94 | 1010.4 |
| 20260502151538 | 46 | 0 | 0.0 | 0.0 | 0.00 | 0.19 | 0.19 | 91 | 1010.4 |
| 20260502123037 | 41 | 0 | 0.0 | 0.0 | 0.00 | 0.19 | 0.19 | 95 | 1011.4 |
| 20260502121545 | 40 | 0 | 0.0 | 0.0 | 0.00 | 0.19 | 0.19 | 95 | 1011.4 |
| 20260502114536 | 40 | 0 | 0.0 | 0.0 | 0.00 | 0.19 | 0.19 | 95 | 1011.1 |
| 20260502113038 | 40 | 0 | 0.0 | 0.0 | 0.00 | 0.19 | 0.19 | 95 | 1011.2 |
| 20260502111535 | 40 | 0 | 0.0 | 0.0 | 0.00 | 0.19 | 0.19 | 95 | 1011.3 |
| 20260502110036 | 39 | 0 | 0.0 | 0.9 | 0.00 | 0.19 | 0.19 | 95 | 1011.2 |
| 20260502104534 | 40 | 0 | 0.0 | 0.0 | 0.00 | 0.19 | 0.19 | 95 | 1010.8 |
| 20260502103042 | 39 | 0 | 0.0 | 0.0 | 0.00 | 0.19 | 0.19 | 95 | 1010.5 |
| 20260502101543 | 39 | 0 | 0.0 | 0.0 | 0.00 | 0.19 | 0.19 | 95 | 1010.9 |
| 20260502070034 | 39 | 0 | 0.0 | 0.9 | 0.07 | 0.12 | 0.12 | 92 | 1011.4 |
| 20260502064534 | 39 | 0 | 0.0 | 0.0 | 0.10 | 0.12 | 0.12 | 92 | 1011.5 |
| 20260502063036 | 39 | 0 | 0.0 | 0.0 | 0.10 | 0.11 | 0.11 | 92 | 1011.7 |
| 20260502061539 | 39 | 0 | 0.0 | 0.0 | 0.09 | 0.09 | 0.09 | 91 | 1011.9 |
| 20260502060035 | 39 | 0 | 0.0 | 0.9 | 0.05 | 0.05 | 0.05 | 90 | 1012.0 |
| 20260502054534 | 39 | 0 | 0.0 | 0.0 | 0.02 | 0.02 | 0.02 | 88 | 1012.1 |
| 20260502053037 | 39 | 0 | 0.0 | 0.0 | 0.00 | 0.00 | 0.00 | 84 | 1011.8 |
| 20260502051540 | 39 | 0 | 0.0 | 0.0 | 0.00 | 0.00 | 0.00 | 81 | 1011.7 |
| 20260502050039 | 39 | 0 | 0.0 | 0.0 | 0.00 | 0.00 | 0.00 | 80 | 1011.6 |
| 20260502044538 | 38 | 0 | 0.0 | 3.5 | 0.00 | 0.00 | 0.00 | 81 | 1011.5 |
| 20260502043035 | 38 | 0 | 0.0 | 3.5 | 0.00 | 0.00 | 0.00 | 81 | 1011.1 |
| 20260502041557 | 37 | 0 | 0.0 | 0.0 | 0.00 | 0.00 | 0.00 | 82 | 1010.9 |
| 20260502040033 | 37 | 0 | 0.0 | 0.0 | 0.00 | 0.00 | 0.00 | 82 | 1011.1 |
| 20260502034536 | 37 | 0 | 0.0 | 0.0 | 0.00 | 0.00 | 0.00 | 80 | 1011.0 |
| 20260502033050 | 37 | 0 | 0.0 | 0.0 | 0.00 | 0.00 | 0.00 | 80 | 1010.9 |
| 20260502031535 | 38 | 0 | 0.0 | 0.0 | 0.00 | 0.00 | 0.00 | 78 | 1010.9 |
| 20260502030037 | 38 | 0 | 0.0 | 0.0 | 0.00 | 0.00 | 0.00 | 77 | 1010.8 |
| 20260502024537 | 39 | 0 | 0.0 | 0.0 | 0.00 | 0.00 | 0.00 | 76 | 1010.8 |
| 20260502023035 | 39 | 0 | 0.0 | 0.0 | 0.00 | 0.00 | 0.00 | 74 | 1010.8 |
| 20260502021536 | 40 | 0 | 0.0 | 0.0 | 0.00 | 0.00 | 0.00 | 73 | 1010.9 |
| 20260502020038 | 41 | 0 | 0.0 | 0.0 | 0.00 | 0.00 | 0.00 | 72 | 1010.9 |
| 20260502014535 | 42 | 0 | 0.0 | 0.0 | 0.00 | 0.01 | 0.00 | 69 | 1011.0 |
| 20260502013035 | 42 | 0 | 0.0 | 0.0 | 0.00 | 0.01 | 0.00 | 68 | 1011.0 |
| 20260502011539 | 43 | 0 | 0.0 | 0.0 | 0.00 | 0.01 | 0.00 | 68 | 1010.9 |
| 20260502010038 | 43 | 0 | 0.0 | 0.0 | 0.00 | 0.01 | 0.00 | 65 | 1010.8 |
| 20260502004538 | 44 | 0 | 0.0 | 0.0 | 0.00 | 0.03 | 0.00 | 63 | 1010.6 |
| 20260502003036 | 45 | 0 | 0.0 | 0.0 | 0.00 | 0.03 | 0.00 | 63 | 1010.3 |
| 20260502001535 | 46 | 0 | 0.0 | 0.0 | 0.00 | 0.03 | 0.00 | 57 | 1010.2 |
| 20260502000034 | 47 | 0 | 0.0 | 0.0 | 0.00 | 0.03 | 0.00 | 55 | 1009.9 |
| 20260501234533 | 48 | 0 | 0.0 | 0.0 | 0.00 | 0.08 | 0.00 | 50 | 1009.8 |
| 20260501233035 | 50 | 0 | 0.0 | 0.0 | 0.00 | 0.08 | 0.00 | 51 | 1009.4 |
| 20260501231552 | 51 | 0 | 0.0 | 0.0 | 0.00 | 0.08 | 0.00 | 47 | 1009.3 |
| 20260501230035 | 52 | 0 | 0.0 | 0.9 | 0.00 | 0.08 | 0.00 | 43 | 1009.2 |
| 20260501224535 | 52 | 0 | 0.0 | 0.0 | 0.00 | 0.08 | 0.00 | 45 | 1009.2 |
| 20260501223100 | 53 | 0 | 0.0 | 3.5 | 0.00 | 0.08 | 0.00 | 39 | 1009.1 |
| 20260501221536 | 53 | 0 | 0.0 | 1.7 | 0.00 | 0.08 | 0.00 | 40 | 1009.0 |
| 20260501220036 | 53 | 86 | 0.0 | 2.6 | 0.00 | 0.08 | 0.00 | 37 | 1009.0 |
| 20260501214536 | 53 | 120 | 0.9 | 4.3 | 0.00 | 0.08 | 0.00 | 38 | 1009.2 |
| 20260501213036 | 54 | 238 | 0.0 | 3.5 | 0.00 | 0.08 | 0.00 | 37 | 1009.1 |
| 20260501211535 | 56 | 14 | 1.7 | 5.2 | 0.00 | 0.08 | 0.00 | 34 | 1008.9 |
| 20260501210037 | 56 | 82 | 0.9 | 7.0 | 0.00 | 0.08 | 0.00 | 34 | 1008.7 |
| 20260501204538 | 56 | 189 | 1.7 | 7.0 | 0.00 | 0.08 | 0.00 | 35 | 1008.8 |
| 20260501203037 | 56 | 24 | 0.9 | 9.6 | 0.00 | 0.08 | 0.00 | 34 | 1008.6 |
| 20260501201535 | 56 | 339 | 1.7 | 5.2 | 0.00 | 0.08 | 0.00 | 35 | 1008.7 |
| 20260501200034 | 55 | 0 | 0.0 | 4.3 | 0.00 | 0.08 | 0.00 | 35 | 1008.8 |
| 20260501194537 | 56 | 262 | 0.9 | 4.3 | 0.00 | 0.09 | 0.00 | 33 | 1008.7 |
| 20260501193036 | 55 | 220 | 0.9 | 7.0 | 0.00 | 0.09 | 0.00 | 35 | 1009.0 |